TimeCST,TemperatureF,Dew PointF,Humidity,Sea Level PressureIn,VisibilityMPH,Wind Direction,Wind SpeedMPH,Gust SpeedMPH,PrecipitationIn,Events,Conditions,WindDirDegrees,DateUTC
12:15 AM,21.2,14.4,75,30.06,10.0,West,15.0,-,N/A,,Clear,280,2012-11-12 06:15:00
12:55 AM,20.8,14.0,75,30.06,10.0,West,13.8,-,N/A,,Clear,270,2012-11-12 06:55:00
1:15 AM,20.8,14.4,76,30.06,10.0,West,12.7,-,N/A,,Clear,260,2012-11-12 07:15:00
1:35 AM,20.7,14.7,78,30.07,10.0,West,12.7,-,N/A,,Clear,260,2012-11-12 07:35:00
1:55 AM,20.3,14.9,80,30.07,10.0,WSW,10.4,-,N/A,,Clear,250,2012-11-12 07:55:00
2:15 AM,20.1,14.9,80,30.07,10.0,WSW,9.2,-,N/A,,Clear,240,2012-11-12 08:15:00
2:35 AM,19.8,14.9,81,30.08,10.0,WSW,9.2,-,N/A,,Clear,240,2012-11-12 08:35:00
3:15 AM,19.6,14.7,81,30.08,10.0,WSW,11.5,-,N/A,,Clear,240,2012-11-12 09:15:00
3:35 AM,19.9,14.9,81,30.08,10.0,WSW,12.7,-,N/A,,Clear,250,2012-11-12 09:35:00
3:55 AM,19.9,14.5,80,30.08,10.0,West,13.8,-,N/A,,Clear,260,2012-11-12 09:55:00
4:15 AM,20.1,14.2,78,30.08,10.0,West,13.8,-,N/A,,Clear,260,2012-11-12 10:15:00
4:35 AM,20.1,14.2,78,30.08,10.0,West,11.5,-,N/A,,Clear,260,2012-11-12 10:35:00
4:55 AM,19.9,14.0,78,30.09,10.0,West,10.4,-,N/A,,Clear,260,2012-11-12 10:55:00
5:15 AM,19.4,14.2,80,30.09,10.0,WSW,8.1,-,N/A,,Clear,240,2012-11-12 11:15:00
5:35 AM,19.0,14.5,83,30.09,10.0,WSW,10.4,-,N/A,,Clear,240,2012-11-12 11:35:00
6:15 AM,19.0,14.7,83,30.09,10.0,WSW,10.4,-,N/A,,Clear,240,2012-11-12 12:15:00
6:55 AM,19.4,14.7,82,30.10,10.0,WSW,12.7,-,N/A,,Clear,240,2012-11-12 12:55:00
7:15 AM,19.8,14.7,81,30.11,10.0,WSW,13.8,-,N/A,,Clear,250,2012-11-12 13:15:00
7:35 AM,20.3,14.9,80,30.11,10.0,WSW,17.3,-,N/A,,Clear,250,2012-11-12 13:35:00
7:55 AM,21.2,15.3,78,30.12,10.0,WSW,17.3,-,N/A,,Clear,250,2012-11-12 13:55:00
8:15 AM,22.1,15.4,76,30.12,10.0,West,19.6,-,N/A,,Clear,260,2012-11-12 14:15:00
8:55 AM,23.5,16.2,73,30.13,10.0,West,20.7,26.5,N/A,,Clear,260,2012-11-12 14:55:00
9:15 AM,24.3,16.5,72,30.13,10.0,West,23.0,-,N/A,,Scattered Clouds,270,2012-11-12 15:15:00
9:35 AM,25.7,17.6,71,30.13,10.0,West,19.6,26.5,N/A,,Scattered Clouds,270,2012-11-12 15:35:00
9:55 AM,25.9,17.1,69,30.14,10.0,West,21.9,27.6,N/A,,Mostly Cloudy,270,2012-11-12 15:55:00
10:15 AM,25.7,17.1,70,30.14,10.0,West,19.6,28.8,N/A,,Mostly Cloudy,270,2012-11-12 16:15:00
10:35 AM,27.1,17.8,68,30.14,10.0,West,23.0,28.8,N/A,,Overcast,270,2012-11-12 16:35:00
10:55 AM,27.7,18.3,68,30.15,10.0,West,23.0,27.6,N/A,,Overcast,260,2012-11-12 16:55:00
11:15 AM,28.0,18.5,67,30.15,10.0,West,26.5,31.1,N/A,,Overcast,270,2012-11-12 17:15:00
11:35 AM,28.4,18.3,66,30.14,10.0,West,24.2,29.9,N/A,,Mostly Cloudy,260,2012-11-12 17:35:00
11:55 AM,29.8,19.2,65,30.14,10.0,West,24.2,29.9,N/A,,Overcast,270,2012-11-12 17:55:00
12:15 PM,30.7,19.4,63,30.15,10.0,West,23.0,29.9,N/A,,Overcast,270,2012-11-12 18:15:00
12:35 PM,29.8,18.5,63,30.14,7.0,West,23.0,31.1,N/A,,Overcast,260,2012-11-12 18:35:00
12:55 PM,31.6,19.8,62,30.14,5.0,West,24.2,29.9,N/A,,Haze,270,2012-11-12 18:55:00
1:15 PM,31.5,18.7,59,30.15,7.0,West,26.5,38.0,N/A,,Overcast,270,2012-11-12 19:15:00
1:35 PM,32.0,18.9,58,30.15,5.0,West,25.3,31.1,N/A,,Haze,280,2012-11-12 19:35:00
1:55 PM,32.2,18.7,58,30.15,5.0,West,24.2,32.2,N/A,,Haze,280,2012-11-12 19:55:00
2:15 PM,32.0,18.1,57,30.16,7.0,West,24.2,31.1,N/A,,Overcast,270,2012-11-12 20:15:00
2:35 PM,32.7,17.8,54,30.16,5.0,West,24.2,31.1,N/A,,Haze,270,2012-11-12 20:35:00
2:55 PM,31.8,18.0,57,30.17,5.0,West,23.0,-,N/A,,Haze,280,2012-11-12 20:55:00
3:15 PM,32.9,18.0,54,30.18,7.0,West,23.0,32.2,N/A,,Scattered Clouds,270,2012-11-12 21:15:00
3:35 PM,32.0,17.4,55,30.19,5.0,West,26.5,32.2,N/A,,Haze,280,2012-11-12 21:35:00
3:55 PM,31.8,18.3,57,30.20,7.0,West,20.7,29.9,N/A,,Scattered Clouds,280,2012-11-12 21:55:00
4:15 PM,31.6,18.1,57,30.20,7.0,WNW,20.7,-,N/A,,Scattered Clouds,290,2012-11-12 22:15:00
4:35 PM,31.1,18.5,60,30.21,7.0,West,18.4,27.6,N/A,,Clear,280,2012-11-12 22:35:00
4:55 PM,30.2,18.5,62,30.22,7.0,West,19.6,25.3,N/A,,Clear,280,2012-11-12 22:55:00
5:15 PM,29.3,19.0,66,30.22,7.0,West,15.0,23.0,N/A,,Clear,280,2012-11-12 23:15:00
5:35 PM,28.6,19.4,69,30.24,7.0,West,13.8,-,N/A,,Clear,270,2012-11-12 23:35:00
5:55 PM,28.2,19.4,70,30.25,7.0,West,13.8,-,N/A,,Clear,270,2012-11-12 23:55:00
6:15 PM,27.7,19.4,71,30.26,7.0,West,11.5,-,N/A,,Clear,280,2012-11-13 00:15:00
6:35 PM,27.3,19.4,72,30.26,7.0,West,10.4,-,N/A,,Clear,270,2012-11-13 00:35:00
6:55 PM,26.6,19.4,74,30.26,10.0,West,9.2,-,N/A,,Clear,270,2012-11-13 00:55:00
7:15 PM,26.2,19.4,75,30.27,7.0,West,9.2,-,N/A,,Clear,270,2012-11-13 01:15:00
7:35 PM,26.2,19.4,75,30.29,7.0,West,10.4,-,N/A,,Clear,270,2012-11-13 01:35:00
7:55 PM,26.2,19.2,75,30.29,7.0,West,9.2,-,N/A,,Clear,270,2012-11-13 01:55:00
8:15 PM,25.3,19.2,78,30.30,7.0,West,8.1,-,N/A,,Clear,260,2012-11-13 02:15:00
8:35 PM,24.8,19.0,79,30.31,7.0,West,8.1,-,N/A,,Clear,270,2012-11-13 02:35:00
8:55 PM,24.3,18.7,79,30.31,7.0,West,9.2,-,N/A,,Clear,260,2012-11-13 02:55:00
9:15 PM,23.0,18.5,83,30.32,7.0,WSW,6.9,-,N/A,,Clear,250,2012-11-13 03:15:00
9:35 PM,23.4,18.5,82,30.33,7.0,WSW,8.1,-,N/A,,Clear,250,2012-11-13 03:35:00
9:55 PM,23.9,18.5,80,30.33,7.0,WSW,8.1,-,N/A,,Clear,250,2012-11-13 03:55:00
10:15 PM,23.9,18.3,79,30.34,10.0,West,8.1,-,N/A,,Clear,260,2012-11-13 04:15:00
10:35 PM,23.5,18.3,80,30.34,7.0,West,9.2,-,N/A,,Clear,260,2012-11-13 04:35:00
10:55 PM,23.4,17.6,79,30.34,7.0,West,10.4,-,N/A,,Clear,260,2012-11-13 04:55:00
11:15 PM,23.0,17.4,79,30.35,7.0,West,6.9,-,N/A,,Clear,260,2012-11-13 05:15:00
11:35 PM,22.6,17.1,79,30.35,7.0,West,6.9,-,N/A,,Clear,270,2012-11-13 05:35:00
11:55 PM,22.1,16.7,80,30.35,7.0,West,8.1,-,N/A,,Clear,260,2012-11-13 05:55:00